Wetbulb
24.60 22.44 22.44 22.47 22.55 22.79 22.64 22.45 22.17 22.62 22.27 22.40 22.61 22.72 22.80 22.99 23.92 23.80 24.14 25.56 25.88 27.01 29.01 29.55 30.67 33.17 34.60 35.31 37.05 38.90 39.31 40.33 38.75 41.82 43.53 47.87 48.50 49.58 49.86 50.76 51.74 51.07 51.51
23.71 22.52 23.36 22.88 22.31 21.93 22.16 21.97 22.38 20.84 22.10 21.76 21.63 21.53 21.84 22.15 22.80 22.24 23.02 23.95 24.79 25.85 26.89 28.17 29.27 31.80 31.57 34.04 34.86 35.95 37.29 39.20 38.07 36.91 40.87 42.87 46.35 47.86 48.71 48.97 49.50 50.33 50.93
21.80 22.80 22.99 22.62 21.66 21.04 21.22 21.37 21.41 20.34 20.47 20.61 21.32 20.83 21.14 22.54 21.54 22.35 22.35 23.37 24.97 26.05 26.90 27.57 28.61 29.21 29.43 31.13 32.94 34.07 35.50 36.79 37.74 38.10 39.16 42.48 44.14 44.49 45.17 45.69 46.20 48.33 48.78
20.88 22.11 22.02 22.11 21.89 21.14 20.91 20.69 20.80 20.08 19.81 19.46 19.87 20.32 21.72 20.97 22.13 22.65 24.08 24.40 24.69 26.53 27.79 28.56 28.32 28.31 28.39 28.87 30.51 31.45 33.50 34.62 36.37 35.83 37.28 39.31 42.33 43.36 43.02 43.38 43.69 43.71 45.61
19.52 20.54 21.64 22.25 22.03 21.07 20.52 20.14 20.16 20.28 19.81 19.59 19.52 19.86 20.12 20.70 22.90 22.99 25.49 25.24 25.52 25.43 26.66 27.28 28.43 29.30 31.32 31.72 31.70 31.81 32.42 32.63 33.01 33.49 34.20 36.80 38.85 40.94 41.78 43.68 42.90 42.63 42.17
19.53 20.09 21.43 20.18 20.88 20.80 20.32 19.64 19.39 19.80 19.43 19.22 18.72 18.43 18.56 21.31 24.36 26.88 27.58 26.08 26.18 25.92 25.37 25.72 26.12 28.76 29.73 32.25 32.71 33.83 33.86 32.30 31.73 31.97 33.78 34.49 35.94 38.85 41.72 42.96 43.35 39.61 40.28
19.90 20.12 19.52 18.50 19.34 19.69 19.86 19.39 18.91 18.35 17.92 17.58 17.31 17.62 17.32 18.31 23.87 26.52 28.48 25.90 25.56 25.28 25.48 25.40 26.15 28.08 28.87 28.01 31.01 33.78 34.27 35.58 36.37 35.49 34.57 35.33 36.36 38.85 40.71 41.62 42.39 41.81 42.28
19.10 18.99 18.31 17.63 17.94 18.29 18.55 18.43 18.03 17.67 16.62 16.31 16.49 16.97 17.30 19.01 24.13 26.12 27.33 25.63 24.46 24.43 25.23 25.21 25.40 25.55 26.96 28.95 29.45 29.45 30.74 32.60 34.07 35.01 36.10 38.24 39.51 39.36 39.18 40.92 41.90 42.73 40.28
17.55 17.91 16.86 16.86 16.42 15.82 16.59 16.68 16.92 16.15 15.44 15.39 17.00 16.50 16.59 17.72 23.19 25.13 25.97 23.64 23.65 24.12 24.84 25.09 25.04 25.23 28.75 31.04 28.55 27.21 27.85 29.65 33.96 35.67 37.21 36.99 37.85 38.72 39.54 38.60 39.55 39.43 38.56
17.00 17.12 15.55 15.45 15.58 14.26 14.92 13.22 13.48 13.93 16.05 17.64 18.36 17.66 19.56 18.53 22.81 24.77 24.87 23.64 23.08 23.82 24.41 25.17 27.51 27.24 30.14 30.39 26.93 26.13 25.78 27.45 29.59 30.09 31.25 32.75 34.22 34.70 38.41 38.82 39.95 38.86 38.14
12.95 11.05 10.68 11.66 12.04 10.93 6.44 2.70 9.64 11.59 15.93 14.44 16.35 16.54 16.24 17.63 17.57 23.83 25.69 23.90 23.78 23.29 23.40 24.27 25.64 28.33 28.50 29.16 29.70 27.10 27.54 29.71 30.20 29.95 30.57 30.93 31.76 33.50 35.63 36.74 38.88 41.41 40.05
10.39 9.56 7.08 5.26 8.82 6.14 4.22 -1.93 7.36 10.09 9.87 11.43 12.24 13.43 16.00 17.54 20.86 22.58 24.93 26.07 26.41 23.77 23.61 24.56 25.02 26.90 27.99 29.20 29.16 30.08 30.67 30.55 28.52 28.43 28.31 27.92 28.14 29.11 32.06 34.81 36.92 39.22 43.52
7.66 5.72 5.43 8.33 7.93 4.31 2.71 -1.11 4.85 6.05 8.56 9.92 12.67 13.34 14.92 18.26 18.81 21.69 24.02 25.11 25.86 23.75 23.80 25.40 27.74 27.88 27.83 26.90 27.76 28.99 29.95 26.29 24.17 23.76 24.22 25.01 26.89 29.04 30.89 32.42 34.54 36.78 39.49
7.28 6.82 7.44 7.01 6.18 6.71 9.13 7.48 6.20 6.79 8.56 11.19 12.44 13.10 13.88 15.26 16.43 17.96 18.87 19.71 22.27 22.97 24.39 23.71 24.89 26.41 27.60 26.31 25.30 25.15 24.96 24.54 24.44 24.50 25.21 26.27 27.29 27.57 28.42 30.90 31.98 34.52 36.60
10.46 9.92 9.00 10.56 9.88 9.71 10.09 10.08 10.37 10.14 10.66 8.17 9.75 11.67 10.63 10.77 14.81 19.48 20.67 20.73 20.82 22.43 24.12 23.69 23.18 22.05 20.57 20.76 21.50 22.37 23.70 24.21 23.38 23.33 23.76 24.18 25.48 26.66 27.82 30.19 31.86 33.86 35.50
8.93 9.62 10.01 9.96 8.96 9.13 8.03 8.02 14.40 17.31 19.42 20.89 21.93 18.82 15.85 20.46 22.80 24.20 25.28 25.98 26.79 26.87 22.79 20.95 20.57 20.13 19.50 19.56 19.27 19.37 21.02 22.83 22.40 21.99 23.55 25.41 24.46 24.39 25.60 28.70 31.66 31.36 33.79
7.50 8.32 8.77 11.07 8.71 7.46 7.09 6.32 4.09 7.99 14.55 17.02 18.81 19.95 21.06 21.77 22.82 23.31 24.04 24.80 25.54 25.14 20.05 20.04 19.04 18.86 18.45 18.37 18.42 18.55 18.06 19.83 21.87 22.17 21.13 21.58 22.53 22.72 24.55 25.65 28.13 30.33 30.36
3.14 10.30 6.02 5.65 4.82 3.95 3.49 3.15 0.57 -3.91 -2.26 1.37 9.80 14.22 16.69 18.60 19.89 21.04 22.08 22.26 18.22 19.59 18.89 17.18 15.97 16.03 15.72 15.79 16.48 16.81 17.42 17.83 18.37 20.50 19.56 18.79 20.64 22.89 21.30 21.82 23.81 26.85 28.80
0.77 1.81 1.30 -0.41 -1.25 -0.36 -4.48 -4.90 -5.01 -6.44 -4.74 -1.43 0.83 7.13 12.20 16.07 17.54 18.81 19.73 15.05 14.21 14.32 14.61 13.28 13.50 13.27 13.57 14.28 14.78 14.99 15.78 17.64 19.71 18.19 17.71 18.56 21.52 22.17 21.81 23.17 24.12 27.43 29.39
-6.92 5.69 7.20 -2.33 -2.82 -6.62 -7.40 -4.65 -0.93 -1.08 -1.14 0.22 1.21 2.22 4.20 7.49 5.61 6.87 8.78 9.02 9.23 9.89 10.52 10.80 11.73 12.62 13.22 13.78 14.24 14.97 15.92 15.87 15.92 16.22 16.54 18.31 20.01 21.01 20.87 21.98 23.19 24.29 26.45
-5.50 -3.58 7.18 6.94 2.32 -1.95 -3.37 -3.99 -1.76 -1.21 0.02 1.60 2.63 5.60 13.38 8.57 7.78 6.60 6.39 7.60 8.48 9.46 10.64 11.56 11.87 12.45 12.82 12.93 13.21 13.71 14.11 13.97 14.90 15.22 15.90 17.55 18.43 18.74 20.56 22.14 23.10 23.50 25.45
-4.54 -2.85 -2.83 -4.34 -2.83 -3.05 -2.09 -0.09 0.61 0.78 1.09 1.04 2.00 3.83 13.42 9.73 8.49 8.16 8.34 8.93 9.71 10.37 10.84 10.35 10.12 10.84 11.47 11.59 12.22 12.03 11.72 11.73 13.03 14.21 15.16 16.18 17.20 18.33 19.56 20.57 21.44 23.13 24.62
-0.38 -0.95 -1.45 -2.49 -0.93 4.47 4.41 3.52 3.32 3.83 3.98 4.31 4.60 4.72 4.75 4.48 4.64 4.82 5.35 6.41 7.11 7.54 8.54 8.55 8.12 8.54 10.80 11.64 12.26 11.57 10.58 11.42 13.03 14.28 13.89 15.00 15.94 17.10 18.52 19.13 19.53 20.19 22.40
-2.06 -2.60 -1.29 -0.41 0.55 0.28 1.55 2.24 3.40 6.55 6.23 5.00 4.80 4.79 4.66 4.86 4.78 4.99 5.55 6.27 6.59 6.95 7.60 7.64 7.82 7.67 8.57 9.36 10.84 12.11 12.80 13.58 14.24 14.17 14.44 14.25 14.57 16.62 17.57 17.73 18.49 20.03 21.70
0.99 -1.55 -3.43 -0.55 0.96 0.90 0.25 0.83 1.00 1.61 1.99 2.24 2.25 2.62 3.27 3.59 3.42 3.75 4.35 5.05 5.53 5.89 6.32 7.26 7.96 7.93 7.81 7.92 8.92 10.12 12.56 16.19 15.33 15.32 14.84 14.81 14.77 15.48 16.14 17.30 18.02 18.28 19.47
0.45 -2.86 -3.47 -0.97 -0.65 -0.69 -1.13 -1.08 -0.68 -0.32 -0.55 0.31 0.82 1.19 1.60 1.78 2.42 3.07 3.78 4.24 4.48 5.04 5.50 6.39 6.91 6.74 6.96 7.39 7.82 9.87 14.35 16.00 15.48 18.48 17.09 16.68 15.73 15.70 16.30 16.65 17.12 18.13 19.21
MSLP
1029.48 1029.94 1030.40 1030.81 1031.17 1031.45 1031.64 1031.80 1031.96 1032.10 1032.28 1032.44 1032.58 1032.70 1032.76 1032.69 1032.45 1032.23 1032.02 1031.59 1031.30 1030.89 1030.55 1030.22 1029.91 1029.64 1029.24 1029.04 1028.79 1028.40 1027.87 1027.44 1025.60 1024.66 1024.48 1023.24 1022.07 1021.27 1021.40 1021.32 1021.41 1021.22 1021.10
1028.59 1029.17 1029.73 1030.21 1030.64 1030.94 1031.11 1031.33 1031.55 1031.85 1032.06 1032.29 1032.38 1032.49 1032.54 1032.55 1032.46 1032.45 1032.25 1031.81 1031.45 1031.02 1030.64 1030.38 1030.02 1029.63 1029.47 1029.26 1028.91 1028.30 1027.30 1026.71 1026.41 1025.16 1024.18 1023.92 1023.19 1021.68 1021.04 1021.08 1020.64 1020.97 1020.60
1027.82 1028.42 1029.05 1029.42 1029.80 1030.13 1030.51 1030.88 1031.30 1031.70 1031.91 1032.07 1032.07 1032.24 1032.31 1032.29 1032.43 1032.42 1032.31 1031.95 1031.55 1031.13 1030.72 1030.48 1030.23 1029.92 1029.55 1029.16 1028.68 1028.02 1027.22 1026.56 1026.06 1025.43 1024.41 1024.00 1023.09 1022.20 1021.94 1021.42 1021.22 1020.76 1020.13
1027.04 1027.58 1027.98 1028.34 1028.69 1029.23 1029.75 1030.30 1030.71 1031.07 1031.35 1031.53 1031.57 1031.75 1031.90 1032.09 1032.12 1032.09 1031.86 1031.67 1031.38 1030.97 1030.62 1030.20 1029.96 1029.69 1029.39 1029.17 1028.78 1028.16 1027.25 1026.57 1025.98 1025.63 1025.16 1024.31 1023.03 1022.13 1022.14 1021.84 1021.05 1020.56 1020.04
1026.08 1026.58 1026.67 1027.28 1027.97 1028.64 1029.27 1029.81 1030.25 1030.60 1030.81 1031.04 1031.26 1031.48 1031.69 1031.71 1031.32 1031.32 1031.10 1031.00 1030.77 1030.52 1030.26 1029.94 1029.54 1029.23 1028.79 1028.41 1027.95 1027.57 1027.21 1026.61 1026.35 1025.80 1024.98 1024.07 1022.94 1022.50 1021.84 1021.81 1021.42 1020.84 1020.25
1024.77 1025.07 1025.67 1026.53 1027.16 1027.83 1028.54 1029.10 1029.69 1030.11 1030.51 1030.91 1031.17 1031.27 1031.33 1031.05 1030.61 1030.31 1030.02 1030.14 1030.16 1030.08 1029.88 1029.67 1029.51 1029.07 1028.70 1028.15 1027.72 1027.45 1027.20 1026.45 1025.74 1025.04 1024.41 1024.08 1023.75 1023.14 1022.00 1021.78 1020.98 1020.47 1019.75
1023.53 1024.16 1024.88 1025.59 1026.22 1026.82 1027.46 1028.17 1028.67 1029.20 1029.83 1030.34 1030.68 1030.83 1030.71 1030.61 1030.06 1029.71 1029.42 1029.52 1029.60 1029.53 1029.51 1029.33 1028.99 1028.53 1028.44 1028.21 1027.53 1026.73 1026.51 1026.19 1025.64 1025.16 1024.48 1024.00 1023.22 1022.55 1022.08 1021.43 1020.96 1020.89 1020.22
1022.77 1023.46 1024.10 1024.84 1025.50 1026.25 1026.91 1027.48 1028.14 1028.80 1029.35 1029.69 1030.01 1030.14 1030.07 1029.88 1029.18 1028.98 1028.88 1028.97 1029.08 1029.08 1029.04 1028.96 1028.77 1028.45 1028.02 1027.41 1027.05 1026.61 1026.22 1025.94 1025.30 1024.86 1024.35 1023.40 1022.79 1022.47 1022.77 1021.70 1020.75 1020.49 1019.99
1022.20 1022.68 1023.37 1024.12 1024.85 1025.56 1026.19 1026.94 1027.77 1028.49 1028.97 1029.16 1029.51 1029.91 1029.82 1029.72 1029.34 1028.76 1028.45 1028.54 1028.45 1028.47 1028.32 1028.20 1028.12 1027.85 1027.49 1026.90 1026.47 1026.11 1025.91 1025.49 1025.03 1024.54 1023.85 1023.51 1022.89 1022.44 1022.29 1021.39 1020.52 1019.99 1019.43
1021.61 1022.18 1023.00 1023.74 1024.31 1024.67 1025.24 1026.22 1027.08 1027.82 1028.40 1028.67 1028.77 1029.08 1029.26 1029.48 1029.27 1028.95 1028.44 1028.27 1027.92 1027.87 1027.84 1027.57 1027.31 1027.08 1026.63 1026.48 1026.31 1025.98 1025.33 1024.87 1024.51 1024.23 1023.79 1023.25 1022.85 1021.99 1021.29 1020.85 1020.17 1019.53 1019.27
1021.18 1022.02 1022.94 1023.93 1024.82 1025.39 1025.80 1026.33 1026.97 1027.57 1028.13 1028.69 1028.57 1028.81 1028.82 1028.95 1029.14 1028.73 1028.14 1027.79 1027.63 1027.24 1027.04 1026.89 1026.81 1026.46 1026.30 1026.29 1025.75 1025.28 1024.92 1024.34 1023.83 1023.50 1023.08 1022.36 1021.98 1021.29 1020.80 1020.25 1019.79 1019.05 1017.44
1021.81 1022.37 1022.99 1023.51 1024.69 1025.90 1026.08 1027.29 1027.51 1027.39 1027.88 1028.52 1028.68 1028.50 1028.45 1028.31 1028.00 1027.82 1027.54 1027.46 1027.11 1026.83 1026.48 1026.32 1026.10 1026.09 1025.58 1025.06 1024.94 1024.45 1024.23 1023.88 1023.46 1023.24 1022.62 1021.89 1021.46 1020.95 1020.28 1019.54 1018.79 1018.08 1016.89
1022.34 1023.33 1024.13 1024.39 1025.02 1025.75 1026.00 1027.36 1027.82 1028.30 1028.05 1028.23 1028.26 1027.89 1027.66 1027.53 1027.56 1027.03 1027.17 1026.77 1026.74 1026.82 1026.40 1025.82 1025.13 1024.69 1024.66 1024.48 1024.47 1024.06 1023.54 1023.75 1023.37 1022.92 1022.29 1021.61 1021.14 1020.38 1019.70 1019.04 1018.23 1017.43 1016.58
1022.66 1023.07 1023.90 1025.02 1025.67 1025.87 1026.28 1026.99 1027.26 1027.82 1028.01 1027.76 1027.64 1027.47 1027.45 1027.39 1027.26 1027.16 1026.94 1026.75 1026.55 1026.42 1025.91 1025.20 1024.65 1024.05 1023.78 1023.72 1023.72 1023.49 1023.42 1023.37 1022.90 1022.29 1021.67 1021.22 1020.69 1019.82 1019.17 1018.53 1017.59 1016.66 1015.74
1023.75 1024.57 1025.03 1025.26 1025.61 1026.09 1026.50 1026.78 1027.05 1027.50 1027.31 1026.97 1026.99 1027.13 1027.19 1026.83 1026.64 1026.25 1025.94 1025.71 1025.46 1025.18 1024.69 1024.48 1023.70 1023.47 1023.20 1023.21 1023.13 1023.00 1022.80 1022.71 1022.35 1021.97 1021.43 1020.88 1020.07 1019.30 1018.37 1017.61 1016.91 1016.16 1015.04
1023.62 1024.32 1024.97 1025.30 1025.87 1026.46 1026.71 1026.90 1026.77 1026.53 1026.07 1025.67 1025.56 1025.54 1025.82 1025.53 1025.28 1024.77 1024.27 1024.05 1023.73 1023.28 1023.18 1023.11 1022.85 1022.74 1022.49 1022.36 1022.23 1022.21 1022.33 1022.17 1021.92 1021.51 1020.79 1020.37 1019.71 1019.03 1018.25 1017.55 1016.57 1015.81 1014.66
1024.35 1024.45 1024.73 1025.34 1025.93 1026.30 1026.61 1027.06 1027.22 1026.56 1026.12 1025.40 1025.15 1024.80 1024.56 1024.29 1024.10 1023.63 1023.20 1022.81 1022.52 1022.54 1022.34 1022.29 1022.05 1022.08 1021.95 1021.86 1022.02 1022.08 1021.95 1021.63 1021.44 1020.68 1020.40 1020.07 1019.49 1018.71 1017.74 1016.99 1016.01 1015.34 1014.48
1025.17 1024.94 1024.92 1025.49 1026.01 1026.53 1026.83 1027.10 1027.22 1026.97 1026.36 1025.69 1025.57 1025.39 1024.79 1024.28 1023.72 1023.26 1022.88 1022.37 1022.05 1022.08 1021.88 1021.78 1021.72 1021.68 1021.68 1021.65 1021.62 1021.50 1021.27 1020.91 1020.78 1020.01 1019.58 1019.47 1019.00 1018.19 1017.46 1016.81 1016.03 1015.09 1014.04
1025.63 1025.73 1025.42 1025.79 1026.16 1026.62 1026.74 1026.86 1027.00 1026.71 1026.21 1025.65 1025.52 1025.23 1024.66 1023.79 1023.19 1022.92 1022.60 1022.11 1021.86 1021.67 1021.69 1021.51 1021.49 1021.34 1021.27 1021.27 1021.14 1020.96 1020.50 1019.89 1019.51 1019.26 1018.89 1018.57 1017.97 1017.47 1016.89 1016.41 1015.55 1014.55 1013.68
1025.96 1025.59 1024.95 1025.51 1026.30 1026.22 1026.43 1026.50 1026.44 1026.04 1025.58 1025.13 1024.95 1024.56 1023.90 1023.59 1023.08 1022.74 1022.47 1022.21 1021.84 1021.43 1021.24 1021.03 1020.86 1020.64 1020.46 1020.34 1020.10 1019.78 1019.24 1018.93 1018.79 1018.54 1018.08 1017.63 1017.05 1016.64 1016.08 1015.73 1014.98 1014.07 1013.09
1025.69 1025.50 1025.01 1024.99 1025.46 1025.51 1025.59 1025.57 1025.32 1025.04 1024.66 1024.23 1023.86 1023.36 1022.71 1022.22 1021.71 1021.51 1021.31 1021.06 1020.77 1020.50 1020.26 1020.03 1019.78 1019.48 1019.26 1019.06 1018.84 1018.47 1018.08 1017.80 1017.71 1017.50 1017.14 1016.60 1016.22 1015.59 1015.16 1014.78 1014.11 1013.42 1012.69
1025.18 1025.13 1025.03 1024.83 1024.81 1024.76 1024.57 1024.38 1024.21 1023.98 1023.61 1023.17 1022.59 1022.14 1021.52 1020.93 1020.52 1020.22 1019.92 1019.66 1019.47 1019.18 1018.80 1018.51 1018.16 1017.87 1017.61 1017.44 1017.30 1017.06 1016.82 1016.56 1016.48 1016.38 1016.01 1015.62 1015.20 1014.68 1014.29 1013.82 1013.25 1012.49 1011.80
1024.43 1024.41 1024.29 1024.22 1024.10 1023.83 1023.35 1023.15 1022.94 1022.64 1022.15 1021.72 1021.27 1020.80 1020.47 1020.07 1019.58 1019.10 1018.62 1018.16 1017.82 1017.38 1016.94 1016.77 1016.47 1016.12 1015.92 1015.71 1015.63 1015.54 1015.31 1015.02 1014.96 1015.05 1014.81 1014.53 1014.19 1013.80 1013.39 1012.84 1012.40 1011.88 1011.07
1023.43 1023.51 1023.47 1023.38 1023.20 1022.91 1022.48 1022.10 1021.73 1021.27 1020.73 1020.24 1019.85 1019.30 1018.77 1018.26 1017.73 1017.20 1016.75 1016.24 1015.76 1015.29 1015.06 1014.85 1014.54 1014.23 1014.06 1013.99 1013.83 1013.62 1013.46 1013.44 1013.53 1013.47 1013.52 1013.40 1013.11 1012.68 1012.21 1011.84 1011.51 1010.93 1010.31
1022.52 1022.66 1022.70 1022.59 1022.28 1021.94 1021.55 1021.14 1020.65 1020.13 1019.57 1018.96 1018.26 1017.65 1016.90 1016.36 1015.75 1015.06 1014.57 1014.07 1013.58 1013.17 1012.66 1012.45 1012.28 1012.06 1011.91 1011.83 1011.76 1011.69 1011.75 1011.68 1011.75 1011.94 1012.02 1011.92 1011.68 1011.34 1011.14 1010.79 1010.33 1009.94 1009.39
1021.96 1022.17 1022.18 1021.92 1021.63 1021.20 1020.67 1019.97 1019.22 1018.59 1017.92 1017.13 1016.49 1015.71 1015.05 1014.28 1013.41 1012.76 1012.13 1011.67 1011.19 1010.67 1010.22 1010.16 1009.89 1009.73 1009.68 1009.74 1009.77 1009.91 1009.97 1009.91 1009.98 1009.95 1009.97 1010.01 1009.89 1009.73 1009.68 1009.43 1009.07 1008.81 1008.20
Wind_Speed
10 8 7 7 7 6 5 5 5 3 2 1 2 3 3 4 5 5 5 5 6 6 6 7 8 7 5 5 5 5 5 5 6 5 6 10 5 4 5 5 7 7 8
10 10 10 8 7 7 6 6 5 4 3 2 0 1 2 3 4 4 4 5 5 5 7 6 7 7 8 6 5 7 8 7 7 10 10 8 8 4 3 6 4 6 7
11 11 10 10 9 9 8 7 6 5 5 4 2 1 2 3 4 4 4 4 5 5 5 5 6 6 7 7 8 7 7 7 6 7 8 7 5 1 4 3 5 7 5
13 12 13 12 12 10 9 8 7 6 6 5 3 1 2 3 4 5 5 5 5 4 5 5 6 7 7 8 8 8 8 8 8 8 8 9 7 2 2 5 7 3 4
14 14 15 12 10 9 9 8 7 6 5 5 4 3 3 4 4 4 4 5 5 4 4 5 5 10 17 13 9 11 12 10 9 8 9 8 8 6 5 5 6 3 4
15 17 14 11 12 12 10 9 8 6 5 5 5 4 4 4 7 10 8 4 3 5 5 5 5 10 9 16 18 18 15 11 13 10 9 10 11 10 7 7 9 4 6
15 14 13 13 13 13 11 10 10 8 6 6 5 5 5 5 9 9 10 4 5 4 6 6 6 6 11 8 14 17 16 18 18 13 14 12 12 10 11 11 9 6 7
13 13 12 14 14 12 11 11 9 7 8 5 5 5 5 5 8 9 10 5 4 5 7 6 6 7 7 11 10 10 11 12 12 10 13 14 10 10 12 13 12 13 4
12 13 12 13 13 13 13 11 8 7 5 5 4 4 5 5 10 10 9 5 7 8 6 6 5 7 12 16 10 11 12 10 13 20 21 25 23 23 19 10 10 8 9
10 10 9 11 13 14 13 11 5 4 5 5 6 5 8 5 10 13 11 5 7 6 7 6 12 11 15 15 11 11 13 11 10 14 13 15 17 17 22 12 10 12 8
7 7 7 7 7 6 7 3 5 5 4 3 4 3 3 5 7 15 14 7 6 6 6 6 6 13 15 19 19 10 13 15 17 13 11 11 10 10 9 9 11 13 9
6 7 7 7 6 5 9 3 4 5 5 3 4 5 5 6 11 12 14 15 14 9 9 7 6 15 19 20 19 20 23 22 10 10 10 10 11 10 10 10 12 14 12
7 7 5 6 7 6 7 5 3 2 2 3 5 4 5 5 5 11 15 16 17 13 9 14 21 20 20 16 19 21 20 8 9 11 10 11 10 10 13 12 12 15 17
8 8 7 7 6 4 4 4 3 4 4 5 5 5 4 5 6 6 8 7 13 13 15 12 14 18 20 15 14 11 8 9 10 9 11 10 10 10 11 9 10 11 11
8 7 5 3 6 4 3 2 3 3 5 3 4 5 5 7 9 12 13 9 9 13 15 10 8 7 7 7 7 8 7 7 8 10 10 11 11 10 11 9 9 12 12
7 5 4 3 3 2 1 2 9 11 14 16 18 14 9 19 22 23 23 25 26 25 13 10 10 9 8 8 8 9 9 11 8 11 10 8 9 11 12 11 9 9 13
4 4 2 3 2 2 2 2 4 5 12 15 18 20 22 23 26 26 27 27 26 24 12 10 10 9 9 8 8 9 11 10 12 10 10 10 8 11 15 11 10 10 11
2 2 2 1 1 1 2 3 2 3 4 5 10 15 18 22 24 26 26 24 13 12 10 8 9 9 8 9 9 10 11 10 12 10 8 9 11 9 10 12 11 13 10
2 1 1 2 1 4 3 3 4 4 5 6 6 11 15 20 22 24 25 12 11 9 7 6 7 8 9 10 11 11 13 11 9 9 10 11 10 9 10 11 12 21 20
2 8 5 3 3 2 2 3 5 6 6 7 7 8 6 10 8 9 9 9 10 10 9 10 10 10 10 11 11 11 12 10 10 10 11 11 10 10 10 11 12 13 11
2 2 8 3 2 3 4 5 6 6 7 7 8 9 20 12 10 10 10 10 10 11 11 11 11 11 12 12 12 12 12 11 11 11 11 11 10 11 10 11 11 12 12
3 4 3 4 3 4 5 6 7 8 9 10 10 10 24 13 10 10 11 11 11 12 13 14 13 13 13 13 12 12 13 13 12 12 12 11 11 11 11 11 12 12 10
4 4 4 4 5 11 9 7 8 9 11 11 11 11 10 11 12 13 14 14 14 14 14 13 14 13 13 13 13 13 14 14 13 12 12 12 11 11 11 11 10 12 11
4 5 6 6 5 7 8 9 9 15 15 12 12 12 13 14 15 17 16 15 15 16 14 14 14 18 16 16 14 14 14 13 13 13 16 13 12 15 11 11 12 13 13
6 5 5 7 7 7 9 10 11 13 13 14 15 15 16 16 17 17 17 16 16 16 18 16 15 19 23 25 23 22 21 30 22 19 12 15 16 17 14 12 12 12 16
1 1 3 5 7 9 11 12 14 14 15 15 15 15 16 17 17 17 17 18 17 17 19 15 18 25 25 21 24 26 33 35 29 33 20 14 14 13 13 15 17 13 16
Wind_Direction
190 184 182 190 187 182 188 188 181 161 135 64 22 6 354 346 352 353 341 357 347 344 349 350 338 332 334 319 311 306 298 288 287 303 298 316 280 245 231 245 245 235 242
188 184 193 185 181 188 193 189 181 188 189 195 181 352 341 338 342 342 330 327 330 334 333 333 330 332 329 319 307 320 308 333 319 308 314 312 305 307 277 277 278 244 238
185 186 191 191 189 195 193 185 182 185 196 206 194 303 331 327 325 310 294 294 297 298 295 303 304 317 318 322 327 313 313 309 312 296 295 296 292 313 311 285 277 252 240
191 194 198 196 196 193 186 183 185 186 190 199 196 241 273 281 293 278 270 282 283 289 285 302 311 314 314 309 306 299 304 305 307 306 296 296 300 312 274 294 291 288 273
191 199 208 199 190 182 183 183 183 188 196 188 194 215 235 256 251 251 260 264 271 293 300 294 309 314 314 315 315 317 313 308 303 297 295 295 308 303 323 318 280 267 264
198 206 203 190 184 187 182 178 182 188 192 195 209 212 227 267 281 297 302 275 302 305 303 304 293 305 299 318 314 310 302 301 301 304 302 295 296 300 305 302 282 286 302
203 203 197 190 190 188 179 177 185 185 180 200 209 217 230 226 275 290 300 303 298 289 296 297 302 309 317 302 301 302 306 298 291 293 292 288 292 302 299 294 306 271 268
202 201 194 191 192 181 178 185 181 177 191 190 207 217 232 255 274 289 299 297 286 283 275 279 283 294 292 300 307 307 306 305 300 298 299 291 289 312 305 301 293 290 288
199 202 195 190 187 178 184 182 175 169 174 181 215 228 237 265 280 284 291 293 286 280 272 264 267 280 289 298 311 310 299 292 296 298 302 308 307 304 299 300 285 262 276
199 199 186 187 191 188 179 168 145 150 187 206 223 212 234 248 277 288 292 278 280 281 279 267 280 285 293 308 304 296 297 301 303 302 296 298 295 290 285 278 286 263 251
142 136 143 167 183 177 131 112 131 148 181 189 231 265 264 259 268 283 285 281 275 279 279 278 267 288 296 299 292 284 284 295 296 291 291 294 292 290 284 278 275 276 244
120 129 134 127 134 133 127 98 131 135 148 194 240 260 260 252 263 269 278 279 278 281 279 276 271 285 286 289 295 294 299 301 300 295 291 290 292 289 284 279 281 283 261
107 103 97 107 118 131 126 127 117 128 152 217 250 246 254 261 260 276 279 280 283 281 277 271 276 287 293 296 287 285 294 301 297 287 285 285 283 289 292 286 277 272 266
102 104 108 118 114 111 114 134 147 179 205 220 240 254 256 264 273 274 269 271 276 279 277 273 270 271 284 293 297 295 282 279 275 278 288 289 289 287 283 279 280 282 260
96 93 98 89 107 126 141 168 203 215 210 206 230 241 249 251 251 260 261 254 249 247 262 259 254 268 278 276 275 275 275 276 278 279 282 285 282 283 281 281 278 290 259
111 120 140 118 119 132 161 257 261 254 252 257 258 245 233 252 262 266 265 267 274 282 279 275 271 273 277 284 288 290 277 279 284 284 277 282 297 299 296 295 287 287 286
111 118 112 127 155 180 199 231 274 284 282 281 281 282 282 283 283 284 282 281 282 285 277 272 270 271 276 287 287 281 279 273 275 278 280 275 284 285 287 279 277 285 296
85 188 132 148 193 202 215 239 230 229 276 288 286 284 283 281 281 280 279 282 280 278 275 270 270 270 268 271 275 276 276 277 268 264 273 280 275 279 292 287 283 279 286
155 237 207 222 217 236 218 222 225 230 241 261 280 283 283 283 284 282 281 279 277 278 276 278 275 272 270 269 267 265 263 259 259 266 267 271 271 277 280 281 280 283 280
225 262 251 175 236 226 226 228 242 244 250 252 253 253 251 280 277 269 257 255 260 263 262 262 261 261 260 258 258 261 261 263 266 264 265 265 267 265 270 273 275 276 280
211 242 261 251 216 219 214 222 232 236 247 251 252 250 261 258 249 245 252 253 250 250 246 246 252 255 256 255 256 256 257 258 259 260 262 262 264 264 267 267 274 278 278
216 231 227 229 246 240 246 249 250 253 255 257 259 255 266 269 269 267 265 263 257 254 254 254 254 252 250 248 248 250 253 255 254 253 256 257 259 260 264 266 267 269 273
213 223 234 237 239 263 271 270 259 256 261 259 259 260 255 256 257 258 259 259 256 254 254 253 252 252 249 246 243 243 245 245 246 247 250 252 252 255 259 260 269 272 271
225 226 239 247 246 244 250 253 252 262 266 261 260 259 260 260 262 261 258 256 254 253 249 247 245 244 245 243 242 240 240 242 243 244 245 246 252 258 259 263 263 264 270
247 240 231 248 252 262 270 272 269 267 265 264 265 262 262 262 261 258 255 253 253 251 249 245 243 243 242 241 240 241 242 246 241 238 242 244 250 251 249 255 259 263 269
172 264 249 260 263 262 263 266 266 265 264 263 261 259 258 258 256 255 252 250 249 248 246 245 243 242 244 244 244 243 245 248 248 252 248 241 243 245 246 249 252 257 259